This is the latest recevied weather packets stored in our database for station/object OK1LPD-5. If no packets are shown the sender has not sent any weather packets the latest 10 day(s).
| Time | Temp. | Humidity | Pressure | Rain* | Wind** | Luminosity | Snow |
|---|---|---|---|---|---|---|---|
| 1777281611 | 15.56° C | 46% | 1021.3 hPa | 0 mm | - | - | - |
| 1777281012 | 15.56° C | 48% | 1021.5 hPa | 0 mm | - | - | - |
| 1777279811 | 16.67° C | 48% | 1022.3 hPa | 0 mm | - | - | - |
| 1777279211 | 16.67° C | 49% | 1022.5 hPa | 0 mm | - | - | - |
| 1777278609 | 15.56° C | 46% | 1022.7 hPa | 0 mm | - | - | - |
| 1777278011 | 15.56° C | 51% | 1023 hPa | 0 mm | - | - | - |
| 1777277409 | 16.11° C | 53% | 1023.2 hPa | 0 mm | - | - | - |
| 1777276211 | 13.89° C | 55% | 1023.5 hPa | 0 mm | - | - | - |
| 1777275609 | 12.22° C | 66% | 1023.6 hPa | 0 mm | - | - | - |
| 1777275009 | 10° C | 80% | 1023.7 hPa | 0 mm | - | - | - |
| 1777274411 | 8.89° C | 85% | 1023.8 hPa | 0 mm | - | - | - |
| 1777273809 | 7.78° C | 94% | 1023.8 hPa | 0 mm | - | - | - |
| 1777273209 | 7.78° C | 94% | 1024 hPa | 0 mm | - | - | - |
| 1777272611 | 6.67° C | 94% | 1024 hPa | 0 mm | - | - | - |
| 1777272009 | 6.11° C | 98% | 1024.1 hPa | 0 mm | - | - | - |
| 1777271409 | 5.56° C | 99% | 1024 hPa | 0 mm | - | - | - |
| 1777270811 | 4.44° C | 99% | 1024.1 hPa | 0 mm | - | - | - |
| 1777270208 | 3.89° C | 99% | 1024.1 hPa | 0 mm | - | - | - |
| 1777269608 | 3.89° C | 99% | 1024.1 hPa | 0 mm | - | - | - |
| 1777269011 | 4.44° C | 99% | 1024 hPa | 0 mm | - | - | - |
| 1777268409 | 1.67° C | 99% | 1024.1 hPa | 0 mm | - | - | - |
| 1777267808 | 0.56° C | 99% | 1024.1 hPa | 0 mm | - | - | - |
| 1777267211 | 0° C | 99% | 1024 hPa | 0 mm | - | - | - |
| 1777266609 | -0.56° C | 99% | 1024 hPa | 0 mm | - | - | - |
| 1777266009 | -1.11° C | 99% | 1023.9 hPa | 0 mm | - | - | - |
* Rain latest hour (hover to see other rain measurements)
** Current wind speed in m/s (hover to see current wind gust speed)